TimeCDT,TemperatureF,Dew PointF,Humidity,Sea Level PressureIn,VisibilityMPH,Wind Direction,Wind SpeedMPH,Gust SpeedMPH,PrecipitationIn,Events,Conditions,WindDirDegrees,DateUTC
12:53 AM,66.0,62.1,87,29.84,10.0,North,5.8,-,N/A,,Partly Cloudy,10,2012-10-01 05:53:00
1:53 AM,64.0,62.1,93,29.85,10.0,NNW,4.6,-,N/A,,Clear,340,2012-10-01 06:53:00
2:53 AM,63.0,62.1,97,29.84,10.0,North,4.6,-,N/A,,Partly Cloudy,350,2012-10-01 07:53:00
3:53 AM,63.0,61.0,93,29.84,10.0,North,3.5,-,N/A,,Clear,350,2012-10-01 08:53:00
4:53 AM,61.0,61.0,100,29.84,10.0,NW,3.5,-,N/A,,Clear,310,2012-10-01 09:53:00
5:53 AM,61.0,60.1,97,29.84,10.0,NNW,4.6,-,N/A,,Clear,330,2012-10-01 10:53:00
6:53 AM,60.1,59.0,96,29.85,10.0,NW,5.8,-,N/A,,Clear,320,2012-10-01 11:53:00
7:53 AM,61.0,60.1,97,29.85,10.0,NW,4.6,-,N/A,,Scattered Clouds,320,2012-10-01 12:53:00
8:53 AM,64.9,63.0,93,29.87,10.0,West,4.6,-,N/A,,Partly Cloudy,260,2012-10-01 13:53:00
9:53 AM,71.1,64.0,78,29.88,10.0,West,6.9,-,N/A,,Partly Cloudy,280,2012-10-01 14:53:00
10:53 AM,75.0,60.1,60,29.88,10.0,West,3.5,-,N/A,,Scattered Clouds,270,2012-10-01 15:53:00
11:53 AM,77.0,62.1,60,29.87,10.0,West,8.1,-,N/A,,Scattered Clouds,270,2012-10-01 16:53:00
12:53 PM,77.0,62.1,60,29.85,10.0,WSW,3.5,-,N/A,,Mostly Cloudy,240,2012-10-01 17:53:00
1:17 PM,77.0,62.6,61,29.89,10.0,WSW,9.2,-,0.00,Rain-Thunderstorm,Light Thunderstorms and Rain,240,2012-10-01 18:17:00
1:22 PM,73.4,64.4,73,29.89,10.0,West,6.9,-,0.01,Rain-Thunderstorm,Thunderstorms and Rain,270,2012-10-01 18:22:00
1:29 PM,69.8,66.2,88,29.92,0.2,West,13.8,20.7,0.14,Fog-Rain-Thunderstorm,Heavy Thunderstorms and Rain,260,2012-10-01 18:29:00
1:35 PM,68.0,64.4,88,29.90,2.5,WSW,12.7,23.0,0.37,Rain-Thunderstorm,Heavy Thunderstorms and Rain,250,2012-10-01 18:35:00
1:44 PM,68.0,66.2,94,29.90,5.0,WNW,12.7,-,0.40,Rain-Thunderstorm,Thunderstorms and Rain,290,2012-10-01 18:44:00
1:53 PM,66.0,64.0,93,29.86,7.0,WNW,8.1,-,0.43,Rain-Thunderstorm,Thunderstorms and Rain,290,2012-10-01 18:53:00
2:12 PM,66.2,64.4,94,29.89,10.0,WNW,6.9,-,0.03,Rain,Light Rain,290,2012-10-01 19:12:00
2:53 PM,70.0,66.9,90,29.83,10.0,West,5.8,-,0.03,,Mostly Cloudy,270,2012-10-01 19:53:00
3:53 PM,73.4,66.2,78,29.87,10.0,SW,5.8,-,N/A,,Mostly Cloudy,230,2012-10-01 20:53:00
4:46 PM,75.2,66.2,73,29.86,10.0,Calm,Calm,-,N/A,Thunderstorm,Thunderstorm,0,2012-10-01 21:46:00
4:53 PM,75.9,66.0,71,29.82,10.0,Calm,Calm,-,N/A,Thunderstorm,Thunderstorm,0,2012-10-01 21:53:00
5:53 PM,68.0,66.9,96,29.83,10.0,West,4.6,-,0.03,Thunderstorm,Thunderstorm,280,2012-10-01 22:53:00
6:27 PM,64.4,62.6,94,29.87,10.0,NW,4.6,-,N/A,,Mostly Cloudy,320,2012-10-01 23:27:00
6:53 PM,64.9,64.0,97,29.83,10.0,NW,4.6,-,N/A,,Mostly Cloudy,310,2012-10-01 23:53:00
7:53 PM,64.0,63.0,96,29.84,10.0,NW,4.6,-,N/A,,Scattered Clouds,310,2012-10-02 00:53:00
8:53 PM,63.0,63.0,100,29.86,10.0,NW,4.6,-,N/A,,Partly Cloudy,310,2012-10-02 01:53:00
9:53 PM,63.0,62.1,97,29.88,10.0,NW,5.8,-,N/A,,Partly Cloudy,310,2012-10-02 02:53:00
10:53 PM,62.1,62.1,100,29.89,10.0,NW,5.8,-,N/A,,Partly Cloudy,310,2012-10-02 03:53:00
11:53 PM,62.1,61.0,96,29.88,10.0,NW,5.8,-,N/A,,Partly Cloudy,310,2012-10-02 04:53:00